Zurück zum Katalog

DELTA 4 R/B

AktivHEO
NORAD 39169·ROCKET BODY·🇺🇸 United States

Gestartet May 25, 2013 von Cape Canaveral Space Force Station

Loading…

Nächste Überflüge (nächste 24 Stunden)

TLE

AktuellSource: Space-Track

Epoche: Sep 13, 2026, 22:13 UTC

1 39169U 13024B   26256.92638330 -.00000220  00000-0  55754-3 0  9997
2 39169  26.2488  25.9415 8229091  30.2665 357.8595  1.10023543 53424

Verfolge DELTA 4 R/B in Echtzeit mit AllMySat

Download on the App Store